Tracking 19846 objects as of 19-Sep-2019
HD Live streaming from Space Station
objects crossing your sky now

FENGYUN 1C DEB

Track FENGYUN 1C DEB now!
10-day predictions


NORAD ID: 32418
Int'l Code: 1999-025DAE
Perigee: 766.2 km
Apogee: 1,183.4 km
Inclination: 98.2 °
Period: 104.4 minutes
Semi major axis: 7345 km
RCS: 0.0154 m2 (small)
Launch date: May 10, 1999
Source: People's Republic of China (PRC)
Launch site: Taiyaun Space Center, China (TSC)

Note: This is SATELLITE DEBRIS
aabbcc
Your satellite tracking list
Your tracking list is empty




NASA's NSSDC Master Catalog

Two Line Element Set (TLE):
1 32418U 99025DAE 19260.54799098  .00001120  00000-0  83924-3 0  9995
2 32418  98.2296  15.2054 0283974 215.4881 142.7090 13.78925724596916
Source of the keplerian elements: AFSPC